Tracking 23440 objects as of 12-Jun-2021
HD Live streaming from Space Station
objects crossing your sky now

STARLINK 1047

Track STARLINK 1047 now!
10-day predictions
STARLINK 1047 is classified as:


NORAD ID: 44752
Int'l Code: 2019-074AR
Perigee: 553.0 km
Apogee: 555.7 km
Inclination: 53.1 °
Period: 95.6 minutes
Semi major axis: 6925 km
RCS: Unknown
Launch date: November 11, 2019
Source: United States (US)
Launch site: AIR FORCE EASTERN TEST RANGE (AFETR)
aabbcc
Your satellite tracking list
Your tracking list is empty




NASA's NSSDC Master Catalog

Two Line Element Set (TLE):
1 44752U 19074AR  21162.86821617  .00000362  00000-0  43209-4 0  9997
2 44752  53.0567  61.0777 0001969  73.1545 286.9660 15.06392188 87441
Source of the keplerian elements: AFSPC